Location: ?????????
(55.6553°N, 38.9075°E)
Time: 09:26:43
(UTC+00:00)

Meteor 2-16 Rocket - Pass Details

Date: 18 October 2019
Orbit: 942 x 956 km, 82.6° (Epoch: 20 November)

Event Time Altitude Azimuth Distance (km) Brightness Sun altitude
Exits shadow 01:03:36 31° 183° (S) 1,588 5.4 -25.2°
Maximum altitude 01:06:41 82° 99° (E) 960 4.4 -24.8°
Drops below altitude 10° 01:12:48 10° 13° (NNE) 2,674 7.2 -24.0°
Sets 01:15:18 0° 13° (NNE) 3,623 7.9 -23.7°
